Location: Peterborough
(44.3091°N, 78.3197°W)
Time: 06:54:14
(UTC-04:00)

Vanguard 2 - Pass Details

Date: 25 March 2023
Orbit: 552 x 2926 km, 32.9° (Epoch: 04 June)

Event Time Altitude Azimuth Distance (km) Brightness Sun altitude
Rises 11:02:48 0° 269° (W) 6,242 11.8 37.9°
Reaches altitude 10° 11:07:47 10° 263° (W) 4,900 11.4 38.6°
Maximum altitude 11:19:06 36° 203° (SSW) 2,407 10.8 39.9°
Drops below altitude 10° 11:26:25 10° 140° (SE) 3,156 11.9 40.8°
Sets 11:28:56 0° 131° (SE) 3,848 11.9 41.1°
